User: anonymous   Login
Location: La Brionne
(46.1728°N, 1.7849°E)
Time: 11:33:05
(UTC+00:00)
Language:

Cosmos 2233 Rocket - Orbit

View from above orbital plane
View from above orbital plane
View from above satellite
View from above satellite

Ground track
Ground track

The orbit data is extracted from the following two-line orbital elements,

1 22488U 93008B   21259.53632333  .00000008  00000-0 -68253-5 0  9999
2 22488  82.9471   3.1882 0025188 191.8930 178.7736 13.77728070437728
Epoch (UTC): 16 September 2021 12:52:18
Eccentricity: 0.0025188
inclination: 82.9471°
perigee height: 953 km
apogee height: 990 km
right ascension of ascending node: 3.1882°
argument of perigee: 191.8930°
revolutions per day: 13.77728070
mean anomaly at epoch: 178.7736°
orbit number at epoch: 43772

The dashed part of the orbit path shows where the satellite is in the earth's shadow,  

DLR